Flag for Hungary Weather past 2 weeks in Győr, Hungary

Now
58 °F

Cool.


Feels Like: 58 °F
Forecast: 60 / 76 °F
Wind: No wind

Location: Gyor

Current Time: Sep 20, 2014 at 8:40:28 AM

Latest Report: Sep 20, 2014 at 8:00 AM


Visibility: N/A

Pressure: 29.99 "Hg

Humidity: 98%

Dew point: 57 °F

Location of GyőrLocation

Historic Weather in Győr — Graph

°F

Győr temperature yesterday

Maximum temperature yesterday: 73 °F (at 5:00 PM)
Minimum temperature yesterday: 56 °F (at 3:00 AM)
Average temperature yesterday: 64 °F

Past Weeks' High & Low Weather Summary

 TemperatureHumidityPressure
High80 °F (Sep 5, 5:00 PM)99% (Sep 15, 3:00 AM)30.13 "Hg (Sep 15, 3:00 AM)
Low50 °F (Sep 18, 7:00 AM)47% (Sep 5, 5:00 PM)29.78 "Hg (Sep 12, 5:00 AM)
Average63 °F85%30.00 "Hg
* Reported Sep 5 7:00 AM — Sep 20 7:00 AM, Győr, Weather by CustomWeather, © 2014

Note: Actual official high and low records may vary slightly from our data, if they occured in-between our weather recording intervals... More about our weather records

Advertising

Győr weather history for previous 24 hours

 ConditionsComfort  
Time TempWeatherWind HumidityBarometerVisibility
7:00 AM
Sep 20
57 °FCool.No wind98%29.99 "HgN/A
6:00 AM56 °FCool.No wind98%29.98 "HgN/A
5:00 AM56 °FCool.No wind97%30.00 "HgN/A
4:00 AM55 °FCool.No wind97%30.00 "HgN/A
3:00 AM57 °FCool.1 mph96%30.00 "HgN/A
2:00 AM58 °FCool.1 mph96%29.99 "HgN/A
1:00 AM59 °FCool.1 mph94%30.00 "HgN/A
12:00 AM61 °FCool.1 mph92%30.01 "HgN/A
10:00 PM
Sep 19
62 °FMild.1 mph88%30.02 "HgN/A
9:00 PM64 °FMild.2 mph84%30.03 "HgN/A
8:00 PM65 °FMild.1 mph80%30.01 "HgN/A
7:00 PM69 °FMild.1 mph70%30.01 "HgN/A
6:00 PM72 °FMild.2 mph63%30.01 "HgN/A
5:00 PM73 °FMild.3 mph59%30.02 "HgN/A
4:00 PM73 °FMild.2 mph62%30.02 "HgN/A
3:00 PM73 °FMild.3 mph61%30.03 "HgN/A
2:00 PM71 °FMild.2 mph65%30.04 "HgN/A
1:00 PM72 °FMild.1 mph62%30.04 "HgN/A
12:00 PM69 °FMild.3 mph67%30.06 "HgN/A
11:00 AM66 °FMild.3 mph73%30.08 "HgN/A
10:00 AM63 °FMild.3 mph75%30.07 "HgN/A
9:00 AM59 °FCool.2 mph79%30.07 "HgN/A
8:00 AM58 °FCool.3 mph81%30.06 "HgN/A
Weather by CustomWeather, © 2014

See weather overviewHow to use our weather pages